Location: Newark
(53.7833°N, 9.4833°E)
Time: 04:54:41
(UTC+00:00)

Envisat - Pass Details

Date: 17 December 2019
Orbit: 764 x 766 km, 98.1° (Epoch: 22 January)

Event Time Altitude Azimuth Distance (km) Brightness Sun altitude
Rises 05:17:08 0° 22° (NNE) 3,247 6.3 -18.8°
Reaches altitude 10° 05:19:49 10° 35° (NE) 2,316 5.7 -18.4°
Maximum altitude 05:24:05 26° 92° (E) 1,466 5.3 -17.8°
Drops below altitude 10° 05:28:20 10° 149° (SSE) 2,300 6.1 -17.2°
Sets 05:30:58 0° 161° (SSE) 3,221 6.8 -16.8°
